Theta_e
330 333 333 333 332 330 329 328 328 329 328 328 327 326 324 321 322 323 326 344 352 349 352 352 349 353 352 351 353 351 352 351 350 350 350 350 349 349 350 349 349 350 349 350 350 348 347 346 344 344 345 345 345 345 345 344 343 341 337 338 344 346 349 351 350 348 346 346 346 346 349 350 350 351 350 349 348 348 347 343 340 342 343 343 343 344
329 332 333 331 330 329 328 328 328 329 329 328 327 325 323 322 322 322 324 340 350 348 349 350 350 353 352 350 352 351 351 352 350 350 350 350 350 349 350 349 349 349 349 349 350 349 348 346 344 343 344 344 345 346 346 345 343 342 339 337 341 346 349 350 349 346 343 342 341 341 344 347 349 349 348 346 344 346 348 345 341 341 343 343 343 343
330 330 330 328 328 328 328 329 328 328 328 328 327 324 322 321 322 323 323 334 344 348 349 349 350 351 352 350 351 352 351 352 351 350 351 350 350 350 349 349 349 348 349 348 349 349 347 346 345 343 344 344 345 346 346 345 344 343 342 340 341 344 347 348 348 344 341 340 338 336 339 344 345 345 345 344 342 343 345 344 341 341 343 343 344 343
328 328 327 326 326 328 329 328 328 328 327 327 326 323 320 321 321 320 321 326 332 341 347 348 349 351 351 351 352 352 352 352 352 350 351 351 350 351 350 349 350 349 348 348 348 348 347 346 345 344 344 345 346 346 346 345 344 343 343 342 341 342 344 346 347 344 340 340 339 337 338 342 344 343 345 344 344 343 342 341 339 338 340 342 343 343
327 327 326 325 325 327 328 327 329 328 326 325 325 323 321 322 321 320 323 324 322 334 347 350 349 350 351 353 353 351 351 351 352 352 350 351 351 350 350 349 349 350 349 348 347 347 347 347 346 346 345 345 346 346 346 345 344 342 342 343 341 339 341 343 345 343 341 340 340 340 342 345 346 347 346 346 345 345 343 341 339 337 336 338 341 342
326 325 325 325 326 326 326 328 328 326 325 323 322 323 323 323 323 322 323 322 320 328 342 348 344 346 349 352 353 350 351 352 351 352 351 351 353 351 351 351 350 350 349 348 348 347 347 347 346 346 346 346 346 346 346 345 344 343 341 343 342 337 337 340 341 341 341 340 338 339 342 345 347 347 346 344 343 344 343 341 341 339 334 335 338 340
325 325 324 324 326 327 326 326 326 326 323 320 324 326 324 323 323 323 322 321 319 326 344 351 345 345 348 348 352 351 350 352 351 352 352 351 352 353 352 351 351 350 350 349 349 347 348 348 347 347 346 347 347 346 346 345 345 343 340 342 344 338 335 337 338 339 339 338 336 336 339 341 341 342 342 341 339 340 341 341 342 339 332 331 336 338
325 323 324 323 324 326 326 325 326 326 322 322 328 326 324 325 322 323 322 320 322 327 343 355 350 346 346 345 350 352 350 352 351 351 353 352 352 354 352 351 352 351 350 350 349 349 348 348 347 348 347 347 346 345 345 345 345 344 340 341 344 340 335 334 334 336 337 336 334 333 336 339 338 336 336 337 337 337 339 340 341 339 334 330 332 337
322 322 322 322 322 322 324 326 326 325 323 326 329 325 326 325 323 326 321 321 324 320 326 342 348 342 343 347 348 351 351 350 351 352 352 352 352 353 353 352 352 352 351 350 350 349 349 348 348 347 347 346 347 346 345 345 345 344 342 340 343 342 336 334 333 334 335 334 331 331 333 335 336 335 335 336 336 336 337 339 339 338 337 333 330 333
318 320 321 320 321 322 324 326 325 325 325 327 326 326 325 324 326 326 321 321 322 318 319 329 334 329 334 346 349 348 350 349 350 351 351 352 352 352 353 352 352 351 351 351 350 350 349 349 348 348 348 347 346 346 345 346 345 344 343 340 341 341 337 335 333 333 333 333 331 329 330 330 332 335 337 337 337 335 336 338 338 337 338 337 333 331
317 317 319 321 322 324 324 324 324 324 326 326 327 326 324 327 328 328 334 329 317 321 327 324 322 320 323 337 347 346 349 350 349 349 351 353 352 352 352 351 352 352 351 351 351 350 350 349 349 349 348 347 347 346 345 345 345 344 344 342 341 340 338 336 336 334 332 332 331 329 329 329 329 335 338 336 336 335 334 335 335 336 337 338 337 334
319 318 318 319 320 321 322 324 324 324 324 324 327 324 322 329 329 328 337 329 314 325 335 325 319 318 317 331 347 348 348 349 348 349 349 352 353 352 352 352 351 351 351 351 350 351 350 349 350 349 349 348 346 347 346 345 345 344 344 344 342 341 338 336 337 336 332 331 331 330 329 329 329 332 337 339 338 336 335 333 332 335 338 339 339 338
321 320 317 317 320 319 319 324 325 327 326 324 326 324 321 324 323 324 330 325 320 327 332 323 318 319 322 334 347 348 348 347 346 348 347 350 353 353 352 351 352 351 350 351 351 351 351 349 350 349 348 348 347 346 346 346 345 345 345 345 343 342 340 337 337 338 335 331 329 330 330 330 329 330 334 337 338 338 336 333 332 334 336 337 338 336
319 321 319 317 319 318 317 318 318 323 326 323 324 323 322 322 318 321 326 322 322 326 327 323 319 321 324 330 341 346 346 345 345 346 346 349 352 352 353 352 351 351 350 351 351 351 351 350 350 350 350 349 347 347 347 346 346 345 345 345 343 343 342 340 339 338 337 333 329 329 330 330 330 332 334 335 335 336 335 332 331 331 331 333 332 330
316 320 320 316 316 317 316 315 315 319 322 324 327 326 325 325 321 322 324 320 321 323 324 322 320 321 323 326 339 345 344 344 344 346 345 346 349 351 353 352 351 351 350 351 351 350 351 350 349 350 350 349 348 347 347 346 346 346 345 345 344 343 344 343 341 340 337 334 331 328 329 329 329 332 336 336 333 333 332 332 330 328 328 328 328 326
314 317 317 315 315 316 315 315 314 318 322 325 327 324 323 327 326 323 325 327 325 322 324 324 323 327 329 332 336 334 340 346 342 345 345 344 349 350 351 352 350 351 351 351 351 351 352 352 350 350 349 350 349 348 348 347 346 346 345 345 345 345 345 345 344 342 339 335 332 329 328 328 327 329 334 336 334 332 330 330 329 327 327 327 326 326
315 316 316 315 316 316 315 315 315 317 321 324 323 320 323 328 326 321 324 329 323 318 325 327 323 326 327 329 331 326 336 347 343 344 345 344 349 350 350 352 350 351 351 351 352 352 352 352 350 350 349 350 350 348 349 348 347 347 346 346 346 346 346 346 345 344 342 339 336 332 329 328 327 326 329 332 332 331 329 329 328 327 326 327 326 326
314 316 315 315 316 316 315 315 316 317 318 319 319 318 323 327 327 324 323 324 321 319 325 324 319 325 323 326 336 329 328 340 345 345 343 344 350 350 350 351 350 351 350 350 352 352 353 353 351 350 350 350 350 349 349 348 347 348 347 347 347 346 347 347 346 346 344 343 340 336 331 328 327 326 327 328 328 327 328 328 327 327 326 326 326 326
314 314 314 315 315 315 315 316 318 317 316 317 317 317 321 323 324 325 321 320 321 321 324 323 323 325 322 324 333 328 324 332 339 345 345 344 348 350 350 350 350 350 350 349 351 351 352 353 353 351 351 350 350 349 349 349 348 348 348 348 347 347 347 347 347 347 346 346 344 341 335 330 328 327 327 327 327 326 326 326 326 326 326 325 325 326
315 315 316 316 314 313 316 316 316 315 315 316 316 316 319 320 319 322 322 321 323 323 324 327 327 329 330 328 327 326 326 327 329 340 346 344 347 350 350 350 350 350 350 349 350 352 352 352 352 352 351 351 350 350 349 349 349 348 348 349 348 348 348 348 348 348 347 347 346 345 340 335 331 329 328 326 327 328 326 326 326 325 325 325 325 326
317 318 316 315 314 314 316 315 315 315 314 315 315 315 318 321 319 321 323 321 322 326 327 326 328 331 334 333 331 332 334 332 329 334 342 344 346 349 350 350 350 349 349 350 350 352 353 352 352 352 352 351 351 350 350 349 349 349 349 349 349 349 349 349 349 349 349 349 349 347 345 341 336 333 330 328 327 327 327 326 326 325 325 325 326 326
316 318 317 316 315 315 314 315 314 315 316 315 315 316 317 319 319 321 326 324 321 323 325 323 326 329 329 329 334 337 339 340 336 334 338 344 344 348 349 349 350 350 350 349 350 351 352 352 352 352 352 352 351 351 351 350 350 350 350 351 350 350 350 350 350 351 351 351 350 349 348 345 341 338 335 332 329 328 327 326 326 326 326 325 326 326
315 318 317 316 316 313 312 314 315 315 317 316 316 317 316 316 317 319 323 325 321 321 323 324 325 325 327 326 327 333 340 341 340 335 335 341 344 347 350 348 349 350 349 349 349 350 351 352 352 353 353 352 352 352 351 351 352 351 351 351 351 351 351 351 352 351 352 352 352 351 350 349 346 342 339 337 335 331 329 328 327 326 326 326 326 326
315 317 315 315 315 312 311 315 317 315 315 315 315 315 314 314 316 317 319 322 322 322 324 325 324 323 326 325 322 331 340 341 341 340 337 340 345 346 348 348 349 349 349 350 349 350 351 351 352 353 353 353 352 352 353 352 352 352 353 352 353 353 353 353 353 353 353 353 353 353 352 351 349 347 344 342 339 336 333 331 330 328 327 327 327 327
314 317 317 317 315 312 312 318 320 315 312 312 313 313 313 313 314 316 320 323 326 325 321 323 326 325 325 324 323 331 341 341 343 345 343 343 345 347 347 348 348 348 348 349 349 350 351 351 352 352 353 354 354 353 353 353 353 353 353 354 354 353 354 354 354 354 354 354 354 354 354 353 352 350 347 346 343 340 337 335 333 332 331 330 329 330
314 316 319 319 316 313 314 318 317 314 311 311 311 311 312 313 312 314 318 321 326 326 321 321 326 325 323 321 324 334 342 342 343 347 348 347 345 347 348 347 348 348 348 349 350 350 351 352 352 352 352 353 353 353 353 353 354 354 354 354 355 355 355 355 355 355 355 355 355 355 355 355 354 352 351 348 346 343 341 339 337 335 334 333 332 332
315 316 317 318 318 316 315 315 313 312 310 310 311 311 311 312 312 313 316 319 322 322 321 325 327 323 320 320 326 336 342 341 342 344 348 350 349 348 348 348 349 350 348 350 349 350 351 352 352 352 352 352 352 352 353 354 354 354 355 355 356 356 356 356 356 357 357 357 357 357 356 356 355 354 353 350 348 346 344 342 340 338 338 337 336 335
316 316 315 315 316 315 313 312 311 311 310 310 310 310 311 312 312 312 314 317 319 319 323 329 328 322 318 321 331 340 341 340 341 340 343 349 352 352 352 352 352 353 352 351 351 351 351 353 353 354 353 352 353 353 353 353 354 354 355 356 356 357 358 358 358 358 358 358 358 358 358 357 357 356 354 352 350 348 346 345 343 341 340 339 338 337
314 315 314 312 312 312 311 311 311 311 311 310 310 311 311 311 312 312 313 314 316 318 321 324 324 321 319 325 336 340 338 338 339 338 339 342 346 350 351 352 354 355 355 354 354 355 353 353 353 353 354 354 354 353 354 353 354 355 355 356 357 357 357 358 358 359 359 359 359 359 358 358 358 357 356 355 353 351 349 347 346 344 342 341 340 339
314 317 315 311 312 312 310 311 311 311 311 311 311 311 311 312 312 311 312 313 314 317 318 318 321 322 322 329 338 338 335 336 336 336 336 336 339 342 343 346 348 349 351 351 350 352 354 356 355 353 354 354 354 354 354 354 354 355 355 356 357 358 358 359 359 359 359 360 359 359 359 359 359 358 358 357 355 354 352 349 348 347 345 343 341 340
314 318 316 312 313 313 311 311 311 311 311 311 310 311 311 311 312 311 312 314 314 317 319 318 322 327 328 332 338 335 333 335 335 334 335 334 335 337 337 339 341 342 345 346 346 347 350 353 356 356 356 354 355 355 354 355 354 354 355 356 356 358 359 359 360 360 360 360 360 360 360 360 360 359 359 358 357 356 355 352 350 349 347 345 343 342
316 317 317 314 314 313 311 311 312 311 311 311 310 312 312 311 312 312 312 314 315 317 316 316 324 335 335 333 336 334 331 332 333 334 334 333 333 334 334 335 336 337 340 342 344 345 345 346 347 353 357 357 356 356 355 355 356 354 356 356 355 356 358 358 359 360 360 361 361 361 361 361 361 361 360 360 359 358 356 354 353 351 349 347 346 345
318 317 316 315 315 314 312 311 312 311 312 313 313 313 312 312 312 311 313 320 324 323 323 324 331 338 337 332 334 334 330 330 332 332 332 332 332 331 332 332 334 335 337 340 342 343 345 344 337 342 353 356 355 357 356 356 357 357 356 357 356 356 356 357 359 359 360 361 361 361 362 362 362 362 362 361 360 359 358 356 354 352 350 349 347 347
319 319 317 315 315 316 315 312 313 313 313 313 313 312 312 312 311 311 317 327 330 329 331 334 335 335 333 331 332 333 330 328 330 330 329 329 330 329 330 331 332 334 336 338 340 341 345 345 336 333 346 352 353 355 357 356 357 358 357 357 358 358 357 357 358 360 361 361 362 362 362 363 363 363 363 362 362 361 359 357 355 353 351 350 349 349
318 319 319 317 316 317 317 315 314 314 313 312 312 312 311 311 312 316 323 328 327 326 328 331 331 329 329 330 330 331 330 328 327 328 328 327 327 327 329 330 331 333 334 336 338 340 342 344 340 333 336 344 346 348 353 356 357 357 357 358 357 357 358 359 359 360 362 362 363 363 363 364 364 364 364 364 363 362 360 358 356 354 352 351 350 350
318 318 319 319 318 317 317 316 314 314 314 312 312 312 314 316 319 322 327 327 325 325 326 327 327 327 327 327 327 328 330 329 328 327 326 326 325 326 327 328 330 332 333 335 337 338 339 342 343 340 338 340 340 340 345 352 355 357 356 356 358 358 358 359 359 360 362 364 364 365 364 365 365 365 365 365 364 364 362 360 357 355 354 352 351 351
317 318 317 316 316 315 316 316 314 314 314 313 312 315 318 319 320 322 325 328 325 323 324 325 325 325 325 326 326 326 329 331 330 326 325 324 324 324 325 327 329 330 332 334 335 337 338 340 342 343 343 344 342 341 344 349 352 355 357 356 358 360 360 360 361 360 361 361 364 365 365 365 365 365 365 365 365 365 363 362 359 357 355 354 352 352
315 317 317 315 315 315 314 315 316 315 315 315 316 318 318 317 318 319 322 326 324 322 323 324 324 323 323 324 325 325 328 333 332 328 324 323 324 324 324 326 329 330 331 333 333 334 337 339 340 342 344 344 344 344 347 347 347 352 356 356 357 359 360 360 361 360 360 360 362 365 366 365 365 365 365 366 365 365 364 363 361 359 356 354 353 353
317 320 319 316 316 316 314 316 316 314 315 318 318 317 315 315 319 319 318 323 323 321 321 323 323 323 322 322 323 324 327 331 330 326 324 323 323 324 324 325 328 329 330 332 333 333 334 337 339 340 341 342 342 344 346 345 346 350 352 353 355 358 360 359 359 360 359 359 361 364 365 366 366 366 365 366 365 366 365 364 363 360 358 356 354 353
319 321 321 317 316 317 315 316 315 313 315 318 316 315 314 316 319 317 318 321 321 319 320 322 322 322 321 321 322 322 323 325 324 323 324 323 323 323 323 324 327 329 330 332 333 334 334 334 336 338 340 341 340 339 342 345 347 350 350 350 352 356 358 359 359 360 360 360 361 362 364 366 366 366 366 366 365 365 365 365 364 362 359 357 356 354
317 318 319 317 316 316 315 315 314 314 316 317 315 314 314 316 318 318 318 320 318 318 320 321 320 321 320 320 321 321 321 321 321 322 323 322 322 322 322 323 326 328 330 331 333 334 334 334 335 337 339 340 341 341 344 347 348 350 350 348 348 352 356 357 359 359 360 361 361 362 364 365 366 366 365 365 365 365 366 365 364 363 361 358 356 356
317 317 317 316 316 316 316 315 314 315 316 315 314 313 314 317 320 319 317 317 317 318 320 320 320 320 320 319 320 320 319 320 321 322 322 323 323 320 319 323 326 327 329 331 332 333 334 335 336 338 339 339 340 342 345 348 350 351 352 352 351 351 352 356 358 359 360 360 360 362 363 364 366 366 366 365 366 366 365 365 364 363 362 360 358 356
317 317 316 316 316 316 315 315 315 316 316 314 314 314 315 318 319 317 315 315 316 318 319 319 319 319 319 319 319 319 319 319 320 322 322 322 323 321 319 322 325 327 329 331 332 333 334 335 337 338 339 339 341 343 345 347 349 352 354 355 355 352 352 354 358 359 359 360 360 360 361 362 365 365 366 366 365 365 365 365 364 363 362 361 359 358
315 316 317 317 316 315 315 315 315 315 314 313 313 314 315 315 315 315 316 316 316 316 317 319 319 318 318 319 319 319 319 318 318 320 321 322 323 321 320 320 323 326 328 330 331 332 333 335 336 337 338 339 340 342 344 345 347 349 353 355 356 356 355 356 357 359 359 359 359 359 359 359 362 364 365 366 365 365 365 365 364 364 362 362 360 359
315 314 315 316 315 315 315 315 314 312 311 312 312 312 312 313 314 315 314 314 314 315 316 317 317 317 317 318 318 318 319 319 318 319 320 321 322 322 321 320 321 324 327 329 330 331 332 333 335 336 337 338 339 340 342 344 344 346 349 352 354 356 358 358 358 359 359 359 359 359 359 358 359 362 365 365 365 365 365 365 364 364 363 362 361 360
313 312 312 314 314 313 311 312 312 311 311 311 311 310 311 313 313 312 312 312 312 313 313 314 315 316 317 318 318 318 318 319 319 318 319 321 322 322 322 322 321 322 325 328 329 330 331 332 333 335 336 337 337 339 341 343 344 344 345 348 351 354 356 358 359 359 359 358 359 358 357 358 358 361 364 366 366 365 365 365 364 365 364 363 362 361
311 310 311 313 313 311 311 312 312 311 310 310 309 310 311 311 311 310 310 310 311 311 312 313 314 315 316 317 318 318 318 319 319 319 318 320 322 322 323 322 321 320 322 326 328 329 330 331 331 332 334 335 336 338 339 341 343 344 344 345 347 351 354 357 359 360 359 358 358 358 357 357 358 361 364 366 366 366 366 365 365 365 364 363 362 362
311 310 312 313 312 310 310 311 310 310 309 309 310 310 310 310 309 309 309 309 310 310 311 312 313 314 315 316 317 318 318 319 319 320 319 319 321 323 323 322 322 320 321 324 327 328 328 328 329 330 332 333 335 336 339 340 342 344 345 344 344 348 352 357 360 363 362 360 359 360 361 359 358 362 365 365 366 366 366 365 366 365 365 364 364 363
311 311 312 312 311 310 310 310 309 309 309 309 309 310 309 308 308 308 309 309 310 310 311 311 312 314 314 316 316 317 318 318 319 320 320 319 321 322 322 322 322 321 320 322 325 326 326 325 326 329 331 333 334 336 338 339 342 344 345 344 344 346 350 354 359 363 365 365 362 362 363 361 360 362 365 365 366 366 366 366 365 365 365 364 364 363
311 313 312 311 311 312 312 311 310 309 309 308 308 309 308 308 308 308 309 310 310 311 311 311 312 313 314 315 316 317 317 318 319 320 320 320 321 322 322 322 322 321 321 321 323 324 324 324 325 329 331 333 334 336 337 339 341 343 344 345 346 347 349 352 357 362 365 367 367 366 364 363 362 362 364 366 366 366 366 366 366 365 366 365 365 364
311 312 311 311 313 313 310 309 308 309 309 308 308 308 308 308 308 309 310 310 310 311 311 311 312 312 313 314 315 316 317 317 318 319 320 320 321 321 321 321 321 321 321 321 321 323 324 323 324 327 331 332 333 335 336 338 340 342 344 345 347 348 349 351 354 359 363 366 367 368 366 364 363 364 365 366 366 366 365 365 366 367 367 366 366 365
Wind_Speed
8 3 3 4 5 6 6 6 6 5 7 8 7 4 5 6 7 7 2 9 16 11 12 15 10 11 15 15 19 27 29 26 24 24 27 30 33 35 37 38 38 37 39 41 41 40 38 37 38 39 39 37 35 32 30 32 33 32 33 34 34 32 30 30 29 27 27 28 25 25 26 23 18 16 15 13 12 11 10 11 12 11 10 10 10 9
7 5 5 7 7 6 7 7 6 7 9 9 7 5 6 6 8 10 4 9 15 10 9 12 11 12 15 14 18 25 23 21 26 26 26 30 32 35 38 38 37 36 38 40 41 42 39 39 40 41 41 39 38 36 33 33 33 33 33 34 36 35 33 32 30 29 30 29 27 28 27 24 20 18 15 13 11 11 10 10 11 11 10 10 10 9
4 4 7 9 8 7 7 7 7 9 9 8 6 4 6 6 7 10 4 8 12 8 8 13 12 11 13 14 18 23 21 22 31 32 31 34 32 34 38 39 38 35 36 40 42 44 42 41 42 42 43 41 39 37 36 34 33 34 33 33 36 37 35 33 30 30 31 28 27 26 26 24 21 18 15 10 9 11 10 9 10 10 10 10 10 9
3 5 10 12 8 8 9 9 8 7 7 6 6 4 6 7 5 6 2 3 4 7 10 13 8 6 9 11 13 21 24 23 29 33 33 36 35 37 40 41 41 38 38 40 42 45 44 43 44 45 45 43 41 39 38 36 35 36 35 33 37 39 36 34 32 31 30 28 26 25 25 24 22 19 15 12 10 11 10 9 9 9 9 10 10 9
5 9 13 11 8 8 8 8 8 6 5 6 7 7 8 9 8 7 5 5 5 4 9 11 3 1 6 10 10 15 19 18 24 29 28 32 35 37 39 41 43 41 40 40 41 45 45 45 46 46 46 45 44 42 40 39 37 37 37 35 36 39 38 35 33 32 31 29 28 27 26 26 24 21 20 18 16 15 12 11 9 8 9 10 10 10
7 14 13 8 7 9 7 7 8 6 5 5 7 10 11 12 12 10 8 4 5 4 8 13 5 3 6 11 11 11 12 13 19 23 24 29 31 32 35 38 41 43 42 42 42 44 46 46 46 46 47 47 46 44 42 40 38 37 37 36 36 38 39 37 34 33 33 32 30 30 31 30 28 26 25 23 21 19 16 13 10 8 9 10 10 10
6 13 12 7 9 11 8 8 8 6 5 5 6 9 12 11 11 11 7 2 0 1 4 7 5 4 5 7 10 11 12 12 14 16 21 29 30 31 36 38 40 42 43 44 42 42 44 46 46 47 48 48 47 46 43 42 39 37 37 38 37 37 39 38 36 35 35 34 32 32 33 32 30 28 26 24 21 19 17 14 11 10 10 10 11 10
3 8 9 7 7 8 7 7 9 8 5 5 7 8 9 8 8 9 6 4 4 1 1 2 4 4 3 7 10 10 11 11 13 14 18 27 32 34 37 39 42 43 44 45 44 42 43 46 48 48 49 49 48 47 45 44 42 39 38 39 38 37 38 39 37 36 36 35 33 33 34 33 30 27 26 24 21 19 17 16 14 12 11 11 11 11
3 2 3 2 2 4 5 8 11 10 6 6 9 9 8 7 6 5 5 5 4 3 2 3 4 3 3 7 8 10 11 12 16 17 17 25 33 36 37 40 42 44 45 46 46 45 45 47 49 49 49 49 48 48 47 46 44 41 39 40 40 38 38 39 38 37 37 36 34 34 35 34 31 28 25 25 22 20 19 18 16 14 12 11 11 12
3 4 5 2 2 4 5 8 11 10 7 7 9 10 8 7 6 2 2 3 2 4 5 6 6 4 4 4 7 9 11 14 17 16 17 25 33 35 37 40 41 43 45 47 48 47 46 47 49 49 49 48 49 49 48 47 45 43 41 41 41 40 39 39 39 38 38 37 36 35 35 34 33 30 28 27 25 22 21 20 18 16 14 13 12 12
6 6 6 3 3 5 4 6 8 10 9 7 6 7 8 6 4 1 1 2 2 1 5 7 10 8 4 3 7 10 14 19 16 13 15 22 29 34 37 39 41 42 45 47 48 47 45 46 48 48 48 48 49 50 49 48 47 45 44 43 43 42 41 40 39 39 39 39 38 36 36 35 34 32 30 29 27 25 24 22 21 18 17 15 12 12
8 5 3 5 4 5 5 7 5 5 6 5 3 0 3 5 4 3 4 2 2 4 6 6 7 7 4 4 7 14 20 21 17 16 17 20 27 34 38 40 42 44 45 46 48 47 44 44 46 48 48 49 50 50 51 50 49 48 46 45 45 44 43 42 41 40 40 40 39 38 37 36 35 33 32 31 29 28 26 25 23 20 19 17 15 13
6 3 4 4 2 10 7 5 6 4 1 1 2 3 2 2 3 2 3 1 3 5 6 6 5 3 5 5 9 18 21 18 15 17 20 24 30 36 39 41 42 43 45 45 47 48 45 45 48 49 49 50 51 52 52 51 51 50 48 47 47 46 44 43 42 41 41 42 42 40 38 37 35 33 33 32 30 29 27 26 25 22 21 20 18 16
4 5 7 5 5 13 10 4 4 6 4 1 3 3 3 2 0 3 3 2 2 5 7 4 4 2 4 5 10 17 20 20 19 21 24 28 33 38 40 41 40 41 44 45 47 48 47 46 49 51 51 51 52 53 53 52 52 51 50 50 48 47 46 45 45 43 42 43 43 42 41 38 37 35 34 33 32 30 28 27 25 23 22 21 19 17
2 3 5 5 4 9 9 6 3 6 5 3 4 4 3 4 3 3 3 2 3 4 6 2 2 3 3 4 9 15 20 24 25 27 29 31 34 37 36 36 37 39 42 44 46 48 49 48 50 53 53 53 53 53 53 53 53 52 52 51 50 49 47 47 46 45 44 44 43 44 43 41 39 38 36 35 33 32 30 28 27 25 23 22 19 17
2 3 4 4 3 5 9 10 9 6 5 4 2 4 2 4 4 2 3 4 3 1 4 2 1 4 5 6 7 9 14 19 23 27 26 28 31 32 31 33 37 39 41 43 45 48 49 49 51 53 54 55 54 53 54 54 54 54 53 53 51 50 49 48 47 46 46 44 44 44 44 44 43 41 39 38 36 34 32 30 29 27 25 23 20 18
2 4 6 7 2 6 14 15 7 8 5 4 2 2 5 5 5 3 3 2 3 1 4 3 3 4 3 6 6 6 9 12 16 20 22 26 29 30 31 35 38 39 41 44 46 49 50 50 51 53 55 56 55 55 55 55 55 55 54 53 53 51 50 48 47 47 46 45 45 45 45 45 44 44 43 42 40 37 35 33 31 29 27 25 23 21
1 4 4 7 4 10 23 18 1 9 10 3 2 7 8 3 4 4 1 2 2 1 4 4 4 4 3 4 6 3 8 12 15 16 19 24 28 30 33 37 41 42 44 44 45 47 50 50 50 53 55 56 56 56 56 56 56 55 54 53 53 53 51 50 48 47 47 46 46 45 46 46 45 45 44 44 43 40 38 36 35 33 31 29 26 24
2 3 3 6 6 11 19 13 3 11 17 7 2 7 5 2 2 2 1 1 0 1 3 4 4 3 2 3 8 8 7 11 15 17 17 18 24 30 34 38 43 44 43 43 44 45 48 50 50 51 53 55 56 56 56 55 55 55 54 53 52 52 51 50 49 48 47 47 46 46 46 47 46 46 44 44 44 43 41 39 37 36 34 32 30 27
4 3 4 4 8 7 8 7 4 11 16 12 9 8 4 1 1 1 1 3 2 2 2 3 3 3 4 5 7 11 11 8 10 16 17 16 25 34 36 39 43 43 44 46 46 46 48 51 51 51 52 53 55 55 55 54 54 54 54 53 52 51 51 50 49 49 48 48 47 46 46 47 48 47 46 44 44 43 42 40 38 38 36 35 33 31
4 4 4 6 8 4 2 5 5 5 8 9 8 7 7 6 2 1 2 2 1 2 2 1 3 3 3 5 8 11 13 13 9 10 15 19 31 39 40 43 45 44 46 46 46 46 48 50 53 53 52 52 53 53 53 53 54 54 54 53 53 52 52 52 51 49 48 48 47 47 47 47 48 48 48 47 46 45 43 41 40 39 37 36 35 33
3 2 3 6 7 3 3 3 6 5 4 1 3 6 7 7 4 3 4 4 2 0 3 3 4 3 3 7 10 14 14 17 18 9 14 23 32 39 42 46 47 46 48 47 46 46 47 47 50 51 51 50 50 51 52 52 53 53 53 53 53 52 52 53 52 51 49 48 47 47 46 46 47 48 49 49 48 47 45 44 42 40 39 38 37 35
4 1 2 4 5 6 5 5 5 3 1 3 6 7 6 6 5 3 3 4 4 4 3 2 4 3 3 9 12 14 13 18 26 15 13 25 31 37 41 43 44 46 49 48 45 45 46 47 48 48 49 48 48 50 51 51 52 53 53 53 53 53 53 52 51 50 49 48 48 47 46 46 47 48 49 49 50 49 47 46 44 42 41 39 38 37
7 2 3 5 6 6 4 2 2 8 8 5 5 7 7 6 6 4 4 3 3 3 3 3 4 3 6 12 13 16 18 22 30 23 7 26 32 37 40 39 41 44 45 45 45 44 45 46 46 46 48 48 48 49 51 52 52 52 52 52 53 53 53 52 51 50 50 49 48 47 46 46 46 48 49 50 50 50 49 47 46 44 43 41 39 38
5 1 3 4 5 7 5 3 4 8 9 5 4 7 8 8 10 8 3 2 1 1 3 1 3 4 8 12 14 17 20 21 27 30 15 9 24 34 38 37 40 43 42 42 44 44 44 45 46 47 49 50 49 49 50 51 51 51 52 52 52 52 52 51 51 50 50 49 48 47 47 45 45 47 49 50 50 51 49 48 48 46 45 43 42 40
2 1 3 3 1 4 3 2 3 6 7 5 6 9 9 10 12 8 3 4 2 2 4 1 3 7 12 15 16 17 19 19 24 33 30 17 5 16 27 32 36 38 40 42 43 43 44 45 47 49 49 50 50 50 51 51 51 51 51 51 51 51 50 51 50 50 50 49 49 49 48 46 45 45 47 48 49 50 50 49 48 47 46 45 43 42
1 2 1 4 5 4 5 4 3 5 7 8 10 11 9 9 10 6 3 3 3 5 6 3 1 8 15 17 16 15 18 20 21 28 32 29 23 15 13 14 16 17 21 30 35 38 41 43 46 49 51 51 51 51 51 51 51 51 51 50 50 49 49 49 49 49 49 49 49 49 48 47 46 44 44 46 47 48 49 49 49 48 47 46 44 43
2 2 2 4 4 5 6 6 6 6 8 10 12 12 9 9 9 7 4 4 4 5 5 4 4 9 14 14 12 11 14 15 16 24 30 30 30 32 33 28 25 24 16 10 10 16 26 34 39 43 47 50 51 52 52 52 51 51 50 49 48 47 47 47 48 48 49 49 49 49 49 47 46 44 43 44 45 47 48 48 48 48 47 46 45 44
3 1 3 2 4 5 5 5 6 7 8 10 11 10 9 9 9 8 7 7 5 3 6 8 9 9 11 11 9 8 10 11 14 23 30 30 33 36 37 36 35 34 30 28 25 16 7 13 22 28 35 39 42 46 48 49 51 50 49 47 46 45 45 45 46 47 47 49 49 48 47 46 46 45 44 44 45 46 47 48 48 47 47 46 45 44
3 0 3 4 5 6 6 6 7 9 9 9 9 9 9 9 10 11 10 8 8 7 9 10 9 7 7 8 8 7 9 13 18 25 31 32 33 35 34 33 33 33 32 32 31 29 24 15 8 12 20 27 32 36 40 42 44 45 46 45 43 43 44 44 44 46 46 47 48 47 46 45 45 45 45 45 45 46 47 48 48 47 47 47 46 44
2 1 3 3 3 5 6 6 8 10 11 11 9 9 10 10 9 11 10 8 7 8 8 9 7 4 6 9 9 11 14 16 20 24 26 29 32 34 33 31 30 30 31 30 30 29 28 24 19 14 9 13 19 26 32 37 39 41 42 43 42 40 39 40 41 43 45 46 46 45 45 45 45 45 45 45 45 46 46 47 48 48 48 47 46 45
2 1 2 3 2 3 4 7 9 11 12 12 7 6 9 9 7 7 9 8 8 8 8 8 5 1 5 9 9 11 15 16 16 18 21 26 30 31 31 30 28 28 29 29 28 27 25 23 21 19 15 9 8 14 20 27 34 39 40 41 43 42 40 40 41 42 43 44 44 44 44 44 44 44 45 45 45 45 46 46 47 48 48 48 47 45
3 1 1 2 1 2 3 6 7 9 9 7 4 3 6 7 7 9 9 7 6 5 3 3 3 3 4 6 6 8 11 11 13 18 22 23 25 26 26 26 26 27 28 27 27 25 24 23 19 16 16 14 8 7 13 16 21 30 38 40 42 46 46 45 43 42 42 43 43 44 44 43 43 43 44 44 44 44 45 46 48 48 48 48 47 46
3 4 1 1 1 2 3 5 6 6 4 4 2 4 7 9 12 12 7 5 6 5 2 2 2 4 5 5 5 4 5 7 11 17 21 23 23 22 22 22 24 26 28 27 26 24 21 20 17 12 12 15 13 7 9 14 14 18 29 38 40 43 46 46 45 43 42 42 43 43 43 43 42 42 42 42 43 43 45 46 47 48 48 48 47 47
2 3 2 1 1 2 2 5 4 4 4 3 4 7 8 9 11 10 4 6 9 8 7 6 6 7 9 10 10 5 4 8 15 20 21 23 23 22 21 21 22 25 26 26 25 23 20 18 16 9 7 10 11 10 4 8 14 11 17 30 38 40 42 44 45 44 42 42 43 43 43 43 42 41 41 40 41 43 44 46 47 47 48 48 48 48
4 3 2 1 1 0 2 2 2 5 7 9 9 7 7 6 7 7 4 5 9 9 7 8 7 9 12 14 17 16 3 6 12 22 23 23 24 25 24 22 22 24 24 23 24 23 21 19 16 9 6 9 8 7 10 3 8 10 11 18 29 37 40 42 45 44 42 41 41 42 43 43 42 42 41 40 41 42 44 45 47 47 48 48 48 48
5 3 1 1 1 1 1 3 3 6 10 10 5 3 4 3 4 5 2 2 5 8 9 9 7 10 14 15 21 25 10 4 5 17 23 25 26 25 24 23 24 24 24 23 22 22 20 19 17 11 7 8 6 7 11 8 1 9 9 12 18 26 35 38 42 43 42 40 40 41 43 44 43 43 42 41 41 43 43 44 45 47 47 48 48 48
4 4 3 2 2 2 2 3 3 4 5 3 2 5 8 8 5 3 3 3 3 10 14 11 8 11 16 17 22 24 13 2 2 9 19 26 27 25 25 25 25 25 25 25 24 23 21 19 17 15 10 7 6 7 10 7 3 7 13 14 17 17 24 30 34 37 38 39 39 40 42 44 44 44 43 43 43 43 43 43 44 45 46 48 49 48
4 2 4 3 1 2 3 3 3 4 4 1 4 8 16 18 10 4 3 2 4 13 18 13 10 13 16 18 21 18 9 4 2 8 18 25 26 26 25 25 26 25 24 24 23 23 23 21 18 15 13 10 7 8 10 8 7 7 13 19 20 16 17 23 27 28 31 35 39 40 42 44 46 45 45 45 44 44 43 43 43 44 45 47 48 48
5 3 3 2 2 3 3 4 4 4 3 2 4 12 20 21 11 4 2 1 6 17 19 12 11 14 17 19 17 11 5 3 6 12 20 23 24 25 24 23 25 25 24 23 23 22 22 22 20 18 16 15 11 9 11 11 11 11 13 17 20 19 19 21 21 20 21 26 33 39 43 45 47 48 46 45 45 44 44 43 43 43 44 46 47 47
3 1 1 2 3 4 5 5 5 4 2 2 7 15 20 16 7 3 2 3 10 19 20 13 10 13 17 19 15 9 9 12 14 16 19 22 24 24 22 21 22 22 23 23 22 22 22 21 22 21 19 18 16 12 11 13 14 13 13 14 16 19 20 21 21 20 18 18 24 34 42 46 48 49 47 45 45 44 44 44 44 44 44 45 46 47
1 1 1 3 2 3 3 3 4 4 1 6 14 17 14 6 3 2 5 10 13 16 17 15 11 11 15 18 16 15 18 19 18 17 18 21 24 24 22 20 21 21 21 22 22 22 23 21 21 21 20 20 19 16 13 13 14 13 13 13 14 16 19 21 22 22 21 20 21 26 35 43 48 49 48 46 45 46 46 45 44 44 44 44 45 46
2 0 1 2 2 1 2 3 5 4 1 8 13 11 5 1 4 8 12 14 14 13 14 16 14 12 14 17 19 21 23 21 18 17 18 20 23 24 23 21 21 21 22 22 23 23 23 22 20 20 21 20 19 17 16 15 14 13 14 14 15 16 19 21 22 23 23 24 24 25 29 36 42 47 48 47 46 47 47 46 45 45 44 44 45 45
2 3 1 2 1 1 2 3 3 2 3 8 7 3 5 9 12 12 11 13 14 13 12 14 17 16 15 16 19 21 24 24 20 18 18 19 21 24 25 23 22 22 22 21 22 23 23 22 21 20 20 20 19 18 17 17 17 16 16 17 17 18 19 21 23 24 25 26 27 27 28 31 36 42 47 48 47 47 47 47 46 45 45 45 45 45
4 5 3 2 2 3 4 7 8 10 12 12 9 10 14 14 11 9 10 12 15 15 13 14 18 18 17 17 19 21 22 23 22 19 17 18 19 22 25 24 23 22 21 20 21 22 22 23 22 22 22 21 20 19 18 18 19 20 19 20 20 20 21 22 23 24 25 26 28 29 30 31 33 38 44 48 48 47 47 47 46 46 45 44 44 45
4 4 3 2 2 5 8 13 16 15 14 14 16 16 13 10 9 11 14 16 17 17 17 16 17 18 18 19 20 21 22 22 22 22 18 16 18 20 22 24 23 21 20 20 20 21 22 22 23 24 24 24 22 21 19 19 19 21 22 23 23 23 23 23 24 25 25 26 27 29 30 31 33 38 43 47 48 47 47 47 46 46 45 45 45 45
3 5 3 2 1 2 4 6 7 7 12 19 21 17 11 11 14 17 18 19 20 20 19 18 17 18 18 18 19 21 21 21 21 23 20 15 16 18 20 22 23 21 19 18 19 20 21 22 23 25 25 25 25 23 22 21 20 21 24 25 25 25 25 25 25 25 26 26 26 26 28 31 34 39 43 46 47 46 46 46 46 46 46 46 46 46
4 6 3 2 3 3 6 10 12 17 21 20 15 13 14 18 23 24 23 23 22 22 21 19 17 17 18 18 18 20 22 21 21 22 22 17 14 16 17 19 21 21 18 17 16 18 19 20 23 24 25 25 25 24 23 22 21 22 24 26 27 27 26 25 24 24 25 26 26 25 27 32 35 39 43 46 46 46 45 45 45 46 47 47 46 46
7 6 3 3 2 4 8 12 14 16 17 12 10 14 20 24 26 25 25 24 22 22 22 20 18 18 18 18 18 19 21 22 21 21 21 17 14 15 16 17 19 20 18 17 16 16 17 19 20 21 22 23 23 23 23 22 21 21 23 25 27 27 27 25 24 24 24 25 26 25 28 33 37 40 43 45 46 45 45 45 44 45 46 46 45 45
7 3 2 3 0 4 6 6 6 6 8 12 17 21 24 23 23 23 24 24 23 23 23 22 21 20 19 18 18 18 20 22 20 19 19 17 15 16 16 16 17 19 18 17 16 15 15 17 19 19 19 21 22 21 21 20 19 19 20 22 25 26 26 26 25 24 23 23 24 25 28 34 38 41 43 45 46 45 44 43 44 44 45 45 44 44
12 9 8 7 4 6 8 9 9 8 12 19 22 23 22 21 20 21 23 25 25 25 25 24 23 22 21 20 19 19 20 21 21 20 19 17 15 16 16 16 16 18 19 17 16 15 14 16 17 17 18 20 22 20 20 19 18 18 18 19 21 22 24 24 25 25 24 22 20 22 27 33 37 41 43 45 45 45 44 43 44 44 44 44 43 42
Wind_Direction
196 209 237 220 231 217 232 231 197 245 280 282 285 292 289 288 276 268 248 182 179 175 196 192 178 176 175 171 170 172 174 178 179 175 174 175 177 178 179 182 186 189 190 190 189 190 190 190 191 192 193 193 194 194 194 195 197 196 191 188 187 186 186 190 193 190 186 185 181 180 183 185 185 191 196 188 181 181 181 188 187 184 186 183 183 179
185 199 235 225 232 225 232 235 216 235 255 269 274 287 290 274 273 276 260 183 182 183 200 190 178 180 175 170 171 171 173 178 181 180 178 176 177 179 182 183 185 188 189 190 190 191 191 190 190 191 192 192 192 192 194 196 198 197 193 189 188 188 189 192 195 191 187 187 184 183 185 184 182 184 188 186 181 181 182 189 187 182 185 185 186 183
182 222 239 228 230 232 242 239 226 232 237 252 260 270 277 267 281 280 255 167 182 201 201 187 183 184 177 170 173 176 177 181 183 183 182 180 177 179 183 184 184 184 185 188 190 192 193 191 190 191 191 192 194 193 194 197 199 198 195 192 190 191 192 194 196 193 191 190 187 187 187 183 182 181 180 182 177 176 179 181 181 181 185 187 188 185
184 244 237 226 224 222 238 240 229 232 232 240 244 250 257 258 272 270 283 104 189 230 198 182 179 172 173 174 179 183 180 179 184 186 186 184 181 181 184 185 185 183 182 185 188 189 191 190 190 190 190 192 193 193 194 196 198 198 197 195 193 194 195 195 196 195 193 191 189 189 186 182 183 183 182 186 187 182 179 177 176 181 187 188 190 188
198 233 231 224 229 226 232 243 234 229 239 240 232 234 246 254 251 244 278 334 331 278 166 141 87 329 186 183 187 187 180 177 183 186 189 191 188 184 183 185 186 186 185 185 185 188 189 189 190 191 191 191 192 193 195 197 199 200 199 197 196 197 198 197 197 196 194 192 189 185 182 180 181 187 192 196 199 197 193 189 184 184 191 193 194 193
222 235 229 210 225 234 235 244 235 213 229 254 235 229 236 247 252 253 273 308 358 354 145 130 108 263 222 197 191 185 181 180 182 185 190 193 191 185 183 184 187 188 188 188 187 187 188 189 190 191 191 192 193 194 197 198 200 201 200 199 199 200 200 200 199 197 194 194 190 184 182 182 183 189 196 198 198 197 196 194 193 192 195 197 198 196
220 232 226 202 211 223 229 241 239 210 208 252 241 229 233 242 253 258 266 258 103 353 158 134 137 194 220 219 206 189 185 186 186 190 191 190 191 188 185 185 187 188 189 190 190 189 189 190 190 191 192 193 195 196 198 198 200 202 202 200 200 202 202 201 200 198 197 197 194 187 184 186 187 189 195 198 196 194 195 196 199 199 197 199 200 196
229 236 228 210 208 212 220 236 237 213 193 243 249 241 243 246 255 256 253 228 197 159 54 110 115 124 185 222 217 194 185 192 196 197 193 192 193 191 190 188 187 188 189 189 191 191 191 192 192 193 194 196 197 197 197 197 199 203 203 202 202 204 204 203 202 201 199 200 197 190 188 189 190 190 194 198 198 196 196 197 201 201 199 201 200 198
272 263 243 210 214 216 215 224 229 218 204 234 246 252 259 252 255 260 254 239 193 123 269 230 129 97 231 219 206 188 187 202 207 202 195 194 195 193 192 191 189 189 189 190 191 192 194 194 195 195 196 198 198 197 198 199 200 203 204 204 204 205 206 205 204 203 202 202 200 194 191 191 192 193 196 199 200 200 200 200 202 202 201 200 197 199
258 263 281 306 241 224 217 227 223 213 217 232 239 251 266 271 270 265 222 234 146 128 217 222 165 168 262 223 179 180 197 209 210 205 198 196 196 196 195 194 192 190 190 191 192 193 195 196 197 197 197 198 198 198 199 200 201 203 204 204 205 207 208 207 205 205 204 203 203 200 196 194 193 193 195 201 203 203 203 204 206 205 201 199 200 201
290 293 283 267 235 241 258 266 231 203 215 235 240 254 270 291 307 345 104 120 103 194 229 213 186 189 255 246 178 183 205 208 204 200 198 197 197 197 198 197 194 192 191 192 192 193 195 196 197 197 198 198 198 198 199 200 201 203 204 205 207 208 210 209 207 206 205 204 205 205 202 199 196 193 193 199 204 204 205 206 208 208 203 201 204 204
319 343 309 248 261 303 298 296 286 215 208 228 224 218 286 300 334 358 5 53 171 257 245 204 176 175 214 251 199 200 213 210 200 195 193 193 196 197 199 199 197 195 193 192 193 193 194 195 196 197 198 198 198 198 198 200 202 204 205 206 207 209 210 211 210 208 207 206 207 207 207 205 202 198 196 198 203 205 205 206 206 205 204 204 207 207
322 324 323 271 344 17 355 309 322 330 35 196 206 81 70 301 329 319 324 305 206 254 243 185 132 163 218 237 207 208 218 214 205 206 198 191 193 197 199 199 198 196 194 194 193 193 194 195 196 196 198 198 198 198 199 200 202 204 205 206 207 209 211 212 212 212 210 209 209 209 209 209 208 205 202 202 204 206 207 207 204 202 203 203 207 210
332 311 345 1 19 13 13 27 349 321 342 343 192 130 132 153 340 257 271 286 240 270 264 186 122 219 257 257 212 209 220 215 208 212 208 200 197 197 199 198 197 197 196 195 194 194 195 196 197 197 197 198 198 199 200 200 202 204 205 207 209 211 212 213 214 214 213 211 211 210 210 210 210 209 208 207 208 209 210 209 206 207 206 206 210 213
15 302 347 34 339 340 9 30 317 282 300 283 198 148 135 155 164 209 219 230 240 274 292 344 103 196 207 242 214 205 216 213 208 211 208 205 203 200 199 196 196 197 197 197 196 194 195 196 197 198 198 198 199 200 200 201 202 204 205 208 210 211 212 213 215 215 215 214 212 212 211 211 211 211 211 213 213 214 214 213 213 216 216 215 218 221
59 256 294 15 326 347 7 345 330 335 319 278 179 115 142 183 166 174 198 192 182 271 303 333 230 208 203 255 243 207 215 210 207 212 207 203 203 199 196 195 197 198 197 198 197 196 196 196 197 198 198 198 199 200 201 202 203 205 206 208 210 212 213 214 216 216 217 216 214 213 212 212 213 213 213 215 217 218 220 220 219 222 224 224 225 228
39 270 303 341 356 49 4 332 345 29 342 290 11 8 247 211 148 141 264 234 122 164 274 273 264 289 308 288 266 198 200 207 205 209 206 199 195 191 193 196 197 198 198 198 199 198 197 196 197 197 198 198 199 201 202 203 205 206 208 209 209 212 214 215 217 218 219 219 217 215 214 213 214 214 215 217 220 222 223 224 226 227 229 230 231 232
358 274 322 5 7 9 352 334 11 53 24 27 333 311 294 288 109 114 267 332 59 160 263 268 255 293 331 300 287 219 187 204 207 208 206 197 188 188 194 196 197 199 199 200 200 200 199 198 197 197 198 199 200 202 204 205 207 208 209 210 210 211 213 215 217 219 220 220 220 219 216 215 215 215 217 219 222 225 225 226 228 230 231 233 234 235
4 303 317 31 20 346 350 356 20 4 9 33 307 309 321 345 10 25 130 203 249 196 268 282 268 264 227 240 280 275 231 209 205 208 209 194 185 190 194 195 198 199 198 200 201 201 201 200 199 199 199 200 201 203 206 206 206 207 209 211 212 213 215 217 218 219 221 222 222 222 220 218 217 216 218 220 222 225 227 227 228 229 232 234 235 236
20 9 285 358 19 347 348 24 23 342 348 2 2 350 348 309 281 318 221 192 183 193 241 303 313 277 246 248 271 276 273 256 212 206 209 197 188 193 195 195 198 198 198 200 199 199 201 201 202 202 201 202 203 204 205 205 206 207 208 210 213 215 216 216 218 220 221 223 224 224 224 222 220 219 219 220 222 224 227 228 228 229 231 233 235 236
21 44 295 313 355 10 49 32 16 350 338 343 358 6 357 340 330 331 288 260 131 166 184 235 280 274 308 328 331 325 320 317 293 220 208 205 195 193 195 196 197 197 198 200 199 198 201 201 202 203 203 203 203 203 204 205 206 208 208 210 213 214 214 215 218 220 222 223 224 225 226 226 224 222 221 222 223 225 227 229 229 230 231 233 235 236
6 37 321 323 337 2 71 0 315 292 280 304 35 20 6 353 360 14 327 323 23 246 201 197 236 258 17 7 352 346 341 328 316 274 205 210 203 194 196 197 196 196 198 200 200 200 201 200 201 202 203 204 203 203 204 205 206 208 209 210 212 213 214 215 217 219 221 223 224 225 227 227 227 226 225 224 225 226 228 230 231 232 233 234 235 236
353 53 352 317 289 284 282 276 288 306 320 80 62 27 5 2 15 21 314 315 338 318 292 253 232 228 3 10 358 343 341 337 329 316 201 201 202 196 198 198 195 196 198 198 199 202 203 202 201 202 202 203 204 203 204 205 206 208 210 211 212 213 215 216 218 219 221 223 225 226 226 228 229 229 228 227 226 227 229 231 232 234 234 235 236 237
349 47 10 318 287 301 301 232 72 54 48 41 35 13 358 352 347 322 276 291 312 331 2 327 270 272 342 356 351 337 345 353 345 339 220 193 196 196 199 197 194 196 198 197 198 200 203 202 201 202 202 202 203 204 205 206 207 208 210 211 213 214 215 216 218 219 221 223 225 226 226 227 229 229 229 229 229 229 229 230 232 234 235 236 237 238
345 75 45 3 325 332 360 25 16 27 28 11 335 343 341 338 341 331 319 356 330 36 41 334 264 298 323 337 342 342 353 0 354 355 6 180 194 197 195 192 192 195 195 194 197 199 200 201 201 202 203 203 204 205 205 206 207 208 210 212 213 214 215 216 217 219 220 223 225 226 226 227 229 229 230 230 231 231 231 231 232 233 235 236 237 239
6 114 85 86 87 292 307 6 346 332 339 331 315 327 331 339 345 337 339 3 332 333 358 277 240 305 313 330 344 347 356 2 356 360 13 34 111 187 192 192 192 193 194 193 195 198 200 201 202 202 203 204 205 206 207 207 208 209 211 213 214 214 214 215 217 218 220 222 224 225 226 227 229 230 231 232 232 232 232 232 232 233 234 236 237 238
88 78 101 153 166 220 243 248 263 282 298 304 311 321 324 330 334 327 328 335 298 323 322 245 207 326 318 331 348 352 359 4 360 359 10 26 43 72 122 162 172 175 190 194 195 199 201 201 203 204 205 206 206 208 209 208 209 209 210 212 213 214 215 215 216 217 219 221 223 225 227 228 229 231 232 233 234 233 233 232 233 233 234 235 236 237
80 16 307 199 202 224 237 260 281 291 295 299 305 311 314 318 321 319 308 294 306 331 299 272 356 337 315 326 349 2 7 8 360 353 1 19 38 56 71 75 71 71 79 110 156 193 203 204 206 206 206 207 207 209 210 210 210 210 210 211 212 214 215 215 216 217 218 220 223 225 228 230 231 232 234 235 234 234 234 233 233 233 234 235 235 236
102 309 283 292 302 284 280 301 312 311 302 299 302 304 308 313 310 302 292 288 299 290 265 289 322 317 309 330 352 11 27 33 15 353 354 15 34 45 56 59 57 58 61 62 64 74 125 195 210 212 210 209 208 209 210 211 211 210 211 211 211 213 214 215 216 217 218 220 223 226 229 231 232 234 235 236 235 235 235 234 233 234 234 234 235 235
100 288 308 336 329 318 326 324 319 318 311 306 311 307 303 301 296 294 292 286 283 270 262 282 304 307 315 334 345 6 41 58 42 16 2 9 26 34 39 44 47 46 46 49 55 62 69 85 136 197 210 211 211 212 211 211 212 212 212 211 211 212 214 216 216 218 219 221 224 227 229 231 233 235 235 236 236 236 236 234 233 233 233 234 235 235
101 268 314 7 353 320 324 327 328 329 320 315 318 312 301 293 287 290 292 288 284 278 271 286 309 329 325 326 340 5 28 43 45 34 16 9 19 27 27 28 35 37 37 40 45 52 60 70 81 97 139 188 205 213 215 215 214 213 212 212 211 211 213 216 218 220 221 223 226 228 230 232 234 235 236 237 237 238 237 235 234 233 233 234 234 235
102 284 332 38 12 299 322 342 336 334 328 317 307 291 283 279 276 286 296 300 295 287 286 297 310 291 297 318 345 17 28 32 34 37 31 21 20 25 24 19 21 27 30 33 36 40 46 52 61 72 83 107 165 198 213 219 220 217 214 212 211 211 213 217 221 223 225 226 228 229 231 234 235 236 237 238 238 238 237 236 234 233 232 233 234 234
134 111 9 22 336 300 344 351 339 342 336 309 277 282 296 307 317 311 312 323 325 318 293 266 246 227 270 314 353 26 30 26 27 35 38 32 25 24 24 18 14 19 23 27 31 32 34 39 46 58 67 68 81 156 188 206 221 223 220 217 215 213 214 216 220 223 226 227 229 231 233 235 237 238 238 239 239 239 238 236 234 233 232 232 233 234
152 130 145 186 169 291 335 0 355 339 304 255 269 343 335 330 320 307 313 1 3 351 326 265 286 316 328 338 350 29 62 54 45 43 40 37 31 26 24 19 14 17 19 22 27 29 29 32 34 47 71 65 54 71 167 189 206 225 225 222 221 218 217 218 219 222 224 227 229 231 233 235 237 239 240 240 240 239 237 236 234 233 232 231 232 233
161 140 179 166 142 247 346 25 359 285 253 262 329 329 315 312 308 302 328 26 5 349 339 339 344 344 340 335 335 346 123 100 61 47 37 31 28 24 23 20 15 18 20 18 20 23 24 26 25 31 56 53 40 30 32 188 195 220 237 229 225 224 222 221 221 222 223 225 228 231 233 235 237 239 241 241 240 239 238 236 235 234 232 231 231 232
158 157 190 154 125 276 50 74 236 263 293 304 307 313 313 318 332 340 5 12 351 344 341 340 341 342 338 334 341 345 313 152 66 43 32 21 18 18 20 18 14 17 20 17 15 15 14 15 19 21 4 3 3 341 340 344 184 209 256 250 233 226 223 223 223 224 225 226 227 230 233 236 237 239 241 242 241 240 239 237 235 233 232 231 230 232
159 148 176 205 173 159 191 214 247 304 310 302 305 18 21 1 352 351 326 267 327 337 339 339 335 339 341 340 346 349 342 180 68 32 22 11 7 8 13 14 13 14 14 11 8 11 11 9 12 13 352 347 346 302 310 335 174 198 233 275 263 232 222 224 224 224 227 230 231 232 233 236 238 239 240 241 241 241 240 239 237 234 233 231 230 231
136 149 156 184 187 149 200 247 286 299 283 293 8 13 359 344 321 300 261 238 338 344 340 343 341 339 344 345 345 348 357 53 29 10 11 5 358 356 2 8 9 10 10 7 360 359 4 6 6 7 0 351 337 306 301 311 298 213 217 255 279 251 225 228 229 229 231 233 234 234 234 237 239 240 240 240 242 243 242 240 238 236 234 232 230 231
50 68 115 133 179 165 195 232 243 240 240 349 356 334 339 335 317 291 277 255 343 340 338 345 349 342 345 345 343 348 8 36 345 344 357 358 354 350 353 359 3 5 8 8 1 352 352 355 357 357 356 348 326 308 303 294 287 260 233 245 265 259 234 233 237 240 241 240 239 238 237 238 239 240 241 242 243 243 243 241 240 238 236 233 232 231
21 28 83 132 218 210 222 242 242 247 262 350 341 330 335 332 321 304 293 271 330 329 328 341 351 343 343 344 345 355 22 358 321 326 339 348 352 349 348 352 356 358 1 4 3 354 345 343 345 347 349 348 336 315 303 294 285 276 256 249 253 250 242 241 246 254 257 252 247 244 240 239 238 239 241 243 243 243 243 242 241 238 237 234 232 231
348 19 127 177 211 221 235 252 261 263 269 345 340 335 335 330 308 235 243 300 320 318 320 333 346 341 340 342 343 343 333 332 336 335 336 344 349 350 350 350 349 349 354 359 359 354 345 339 339 342 345 345 340 328 310 296 287 280 273 263 255 250 248 251 256 262 264 261 255 248 243 240 238 239 240 242 244 243 242 241 240 238 237 235 232 231
330 340 191 171 190 227 217 230 270 274 330 2 341 338 342 331 238 231 320 317 309 309 316 325 333 336 334 332 331 326 322 329 344 351 346 345 347 350 352 351 347 346 350 354 355 353 348 342 338 339 340 340 337 332 322 305 293 287 282 278 272 264 257 255 259 262 261 257 256 252 246 241 238 237 238 240 240 240 240 239 238 237 237 236 233 231
179 176 254 206 185 212 217 245 266 256 5 7 348 347 14 49 281 314 324 314 304 307 314 314 318 331 332 325 323 324 322 324 335 348 348 344 345 349 349 348 349 349 349 351 352 351 347 343 340 338 339 339 334 328 322 313 302 291 284 282 278 270 262 258 258 260 259 254 252 252 250 245 241 238 237 237 236 237 237 237 236 235 235 235 233 231
181 161 207 238 195 150 201 223 213 210 318 344 342 308 291 299 305 314 318 311 310 315 317 312 314 322 326 321 319 320 320 319 323 335 344 343 342 346 346 346 348 349 349 351 352 348 344 341 338 336 335 337 335 327 320 314 306 296 287 284 279 273 269 265 262 261 259 255 251 249 249 249 245 241 238 235 234 234 234 234 235 234 233 233 232 231
208 184 177 210 216 205 227 250 266 284 299 306 301 295 300 303 308 320 323 315 313 316 320 317 312 314 318 317 314 312 313 314 316 321 333 339 338 338 342 344 345 347 348 349 349 346 342 338 337 333 329 330 331 328 321 315 309 303 295 288 283 280 277 274 270 267 263 259 254 250 248 249 247 243 239 235 232 231 232 232 232 232 231 231 231 230
192 169 137 136 252 281 275 267 272 285 297 302 306 309 304 296 302 318 319 315 312 313 315 312 307 310 314 314 311 307 305 307 310 312 318 332 336 333 334 338 341 345 347 346 347 347 343 338 335 332 329 329 329 328 326 321 312 304 299 293 289 287 284 282 280 276 271 266 260 253 249 248 246 242 238 234 231 231 232 232 231 231 230 230 230 230
185 172 169 172 250 307 289 264 265 292 305 307 308 303 288 286 304 312 311 309 308 307 305 303 303 307 310 308 307 307 304 302 304 307 309 320 331 331 330 332 336 342 345 345 347 347 343 340 338 336 334 333 332 329 327 323 315 306 300 296 292 289 286 287 287 283 277 272 266 258 252 248 245 239 234 230 229 229 228 228 230 231 230 230 230 230
178 168 190 222 206 223 265 275 283 294 299 299 295 288 293 306 310 309 306 305 304 301 299 298 297 299 302 301 299 302 304 301 300 302 305 310 321 326 326 329 333 337 341 343 344 345 345 346 345 342 340 338 335 331 328 322 317 310 303 298 293 290 287 286 287 286 281 273 268 263 256 249 243 236 231 228 227 227 226 225 226 228 231 233 233 231
152 155 182 192 208 258 276 283 293 302 303 293 278 291 306 312 311 307 305 304 301 298 296 295 292 291 293 293 291 293 299 300 299 301 301 301 308 313 316 323 330 332 335 339 341 345 352 356 353 349 347 343 338 334 331 324 316 311 307 302 297 293 290 287 285 286 283 274 267 263 258 250 241 234 230 228 227 227 227 228 229 231 233 236 238 238
151 167 178 145 259 269 252 266 295 307 293 285 291 300 307 310 308 307 306 304 300 298 296 295 293 288 284 283 283 284 289 292 294 297 296 294 298 303 306 315 325 328 331 334 336 340 353 3 2 358 356 351 343 337 334 329 319 312 308 304 300 297 294 290 286 286 286 279 270 262 255 248 240 233 229 228 226 224 225 228 231 233 234 236 238 240
194 207 187 173 211 234 238 265 282 274 272 284 297 304 307 309 309 307 306 304 300 296 295 294 293 290 284 280 277 277 281 283 284 287 288 288 291 296 297 304 316 324 326 330 333 338 350 4 6 4 5 3 355 345 338 333 326 318 311 305 301 298 296 293 288 284 285 284 277 265 252 244 238 233 228 226 225 225 227 228 230 231 232 233 236 238